Temperature
16 16 16 16 16 16 16 16 15 15 15 15 15 15 15 15 14 14 14 14 14 14 14 14 14 14 14 14 13 13 13 13 13 13 12 12 12 12 12 12 12 12 12
17 16 16 16 16 16 16 16 15 15 15 15 15 15 15 15 14 14 14 14 14 14 14 14 14 14 14 14 14 13 13 13 13 13 13 12 12 12 12 12 12 12 11
17 17 16 16 16 16 16 16 15 15 15 15 15 15 15 14 14 14 14 14 14 14 14 14 14 14 14 14 13 13 13 13 13 13 13 12 12 12 12 12 12 11 11
17 17 16 16 16 16 16 16 15 15 15 15 15 15 15 14 14 14 14 14 14 14 14 14 14 14 13 13 13 13 13 13 13 12 12 12 12 12 12 12 12 11 11
17 17 16 16 16 16 16 15 15 15 15 15 15 15 15 15 14 14 14 14 14 14 14 14 13 13 13 13 13 13 13 13 12 12 12 12 12 11 11 11 11 11 11
16 16 16 16 16 16 16 15 15 15 15 15 15 15 15 14 14 14 14 14 14 14 14 13 13 13 13 13 13 13 12 12 12 12 12 11 11 11 11 11 11 11 10
16 16 16 16 16 16 16 15 15 15 15 15 15 15 14 14 14 14 14 14 14 13 13 13 13 13 13 13 12 12 12 12 12 11 11 11 11 10 10 10 10 10 10
16 16 16 16 16 16 15 15 15 15 15 15 14 14 14 14 14 14 14 14 13 13 13 13 13 13 12 12 12 12 12 11 11 11 11 10 10 10 10 10 9 9 9
16 16 16 16 16 15 15 15 15 15 14 14 14 14 14 14 14 14 14 13 13 13 13 13 12 12 12 12 12 12 11 11 11 10 10 10 10 10 10 9 9 9 9
16 16 16 16 16 15 15 15 15 14 14 14 14 14 14 14 14 13 13 13 13 13 13 12 12 12 12 11 11 11 11 11 10 10 10 10 10 9 9 9 8 8 8
16 16 16 16 15 15 15 15 14 14 14 14 14 14 13 13 13 13 13 13 13 13 12 12 12 11 11 11 11 11 11 10 10 10 9 9 9 9 9 8 8 7 7
16 16 16 15 15 15 15 15 14 14 14 14 13 13 13 13 13 13 13 13 12 12 12 12 11 11 11 11 10 10 10 10 9 9 9 9 9 8 8 7 7 7 6
16 16 16 15 15 15 15 14 14 14 14 14 13 13 13 13 13 13 12 12 12 12 11 11 11 10 10 10 10 10 9 9 9 9 9 8 8 7 7 7 7 6 6
16 16 15 15 15 15 14 14 14 14 14 14 13 13 13 13 12 12 12 12 12 11 11 11 10 10 10 10 9 9 9 9 9 8 8 8 7 7 7 6 6 6 6
16 15 15 15 15 14 14 14 14 14 13 13 13 13 13 12 12 12 12 11 11 11 10 10 10 10 9 9 9 9 8 8 8 8 8 7 7 6 6 6 5 5 5
15 15 15 15 14 14 14 14 13 13 13 13 13 12 12 12 11 11 11 11 10 10 10 10 10 9 9 9 9 8 8 8 8 7 7 7 6 6 5 5 4 4 4
15 15 15 14 14 14 14 14 13 13 12 12 12 12 12 11 11 11 11 10 10 10 10 9 9 9 8 8 8 8 7 7 7 7 6 6 5 5 5 4 4 4 3
14 14 14 14 14 13 13 13 13 13 12 12 12 11 11 11 11 10 10 10 9 9 9 9 9 8 8 8 7 7 7 7 7 6 6 5 5 4 4 4 3 3 3
14 14 14 14 13 13 13 13 12 12 12 12 11 11 11 10 10 10 9 9 9 9 9 9 8 8 8 7 7 7 6 6 6 6 5 5 4 4 4 3 3 2 2
13 13 13 13 13 13 12 12 12 12 11 11 11 11 10 10 10 10 9 9 9 9 9 8 8 8 7 7 7 6 6 6 5 5 5 4 4 3 3 3 2 2 2
13 13 13 13 12 12 12 12 11 11 11 11 11 10 10 10 10 9 9 9 9 9 8 8 8 7 7 7 6 6 6 5 5 5 4 4 3 3 3 2 2 1 1
12 12 12 12 12 12 11 11 11 11 10 10 10 10 9 9 9 9 9 9 8 8 8 7 7 7 6 6 6 5 5 5 4 4 4 3 3 3 2 2 2 1 1
12 12 12 11 11 11 11 11 10 10 10 10 10 10 9 9 9 9 8 8 8 7 7 7 6 6 6 6 5 5 5 4 4 4 3 3 2 2 2 2 1 1 0
11 11 11 11 10 10 10 10 10 10 10 9 9 9 9 9 8 8 8 7 7 7 7 6 6 6 6 5 5 4 4 4 4 3 3 2 2 2 1 1 1 0 -0
11 10 10 10 10 10 9 9 9 9 9 9 9 8 8 8 8 7 7 7 6 6 6 6 5 5 5 5 4 4 4 4 3 3 3 2 2 1 1 1 0 -0 -1
10 10 10 10 9 9 9 9 9 9 8 8 8 8 7 7 7 7 6 6 6 6 5 5 5 5 5 4 4 4 3 3 3 2 2 2 1 1 1 0 -0 -1 -1
Wind_Speed
4 3 3 3 3 3 3 3 3 3 3 3 3 4 3 2 2 3 2 2 2 2 2 2 1 1 1 1 2 2 2 2 2 2 2 2 3 4 6 6 6 6 6
4 4 3 3 3 3 3 3 3 3 3 3 4 4 3 3 3 3 2 2 2 1 1 2 1 1 2 1 2 2 1 2 2 1 2 2 2 3 4 4 5 6 6
4 4 4 3 3 3 3 3 3 3 3 3 4 4 3 3 3 3 3 2 2 2 1 1 1 2 1 1 1 1 1 1 2 2 1 1 2 2 3 3 4 5 5
4 4 4 5 5 4 3 3 3 4 4 3 3 3 3 3 3 3 3 2 2 1 1 1 1 2 2 2 2 1 2 2 2 2 1 2 2 2 2 2 3 3 3
4 4 5 4 4 4 3 3 3 3 3 3 3 3 3 3 3 4 3 3 2 1 1 0 1 2 2 3 2 2 3 2 2 2 1 1 2 2 2 2 2 3 2
5 5 4 4 4 4 4 3 3 3 3 3 3 3 2 2 4 6 5 4 3 2 1 0 1 1 2 3 4 4 4 3 3 2 1 0 2 2 1 1 1 2 3
5 5 4 4 4 4 4 4 4 3 3 3 3 3 2 2 4 5 6 5 3 2 1 1 1 2 2 3 4 4 3 3 4 4 2 1 1 2 1 1 1 1 2
5 5 5 5 5 4 4 4 4 3 4 3 3 3 3 2 4 5 6 5 3 2 1 1 1 0 2 3 4 4 3 2 2 2 2 0 0 0 0 1 1 1 2
6 6 6 7 6 5 5 4 3 4 3 3 3 3 3 2 3 5 6 4 3 1 1 1 2 1 2 4 4 3 2 2 4 4 4 4 5 5 4 3 2 2 2
7 7 7 7 7 7 6 5 3 3 3 3 3 2 3 2 3 5 6 3 3 2 1 1 1 2 2 4 3 3 2 0 2 3 4 5 6 5 5 3 1 1 1
5 5 6 7 7 7 5 4 4 4 4 3 3 2 2 2 2 4 6 4 4 3 2 1 1 3 3 4 4 3 3 2 2 3 3 3 4 4 5 4 2 1 0
4 5 5 6 6 5 6 5 5 5 5 4 3 2 1 0 2 3 5 6 6 4 3 2 2 3 3 3 3 3 3 4 3 3 2 2 3 3 3 4 4 3 2
4 5 5 5 5 5 6 6 5 5 5 4 4 3 1 1 1 3 4 5 6 4 3 4 4 4 3 3 3 4 4 3 3 2 1 1 1 2 3 4 4 4 5
5 5 5 5 5 5 5 5 5 5 5 5 4 4 3 1 1 2 2 3 4 4 3 4 5 5 4 4 4 3 2 2 2 2 1 0 1 2 2 2 2 2 2
4 4 5 5 5 5 4 4 5 5 6 6 5 5 5 4 4 6 5 4 4 4 4 3 3 2 2 2 2 1 1 1 1 1 1 1 1 1 2 2 1 1 2
3 4 4 4 5 5 5 3 2 3 5 7 6 6 4 6 7 8 8 7 8 9 6 3 2 2 1 1 1 0 0 0 0 0 0 0 0 1 1 1 2 1 2
5 5 4 5 5 5 5 5 3 2 3 4 5 6 6 7 8 8 8 8 7 8 4 3 2 2 2 1 1 1 1 1 1 1 1 1 1 1 1 1 2 2 2
5 5 6 5 5 5 5 5 4 4 3 1 2 5 6 6 7 8 8 7 4 3 2 3 3 2 2 2 2 2 2 1 1 1 1 1 1 1 1 1 2 2 3
4 4 4 4 4 4 4 4 4 4 4 3 2 2 4 4 5 5 7 4 4 3 3 3 3 3 2 2 2 2 2 2 1 1 1 1 1 1 1 1 2 3 3
4 6 6 5 4 4 4 4 4 4 3 3 3 3 3 3 3 3 3 3 3 3 4 4 3 3 3 3 2 2 2 2 2 2 2 2 2 1 1 2 2 2 2
3 4 6 5 4 4 4 4 4 4 4 3 3 4 6 5 4 4 4 4 4 4 4 4 3 3 3 2 2 3 3 3 2 2 2 2 2 1 1 1 2 2 2
3 3 4 4 4 4 4 4 4 4 4 4 3 3 6 4 3 3 3 3 3 2 2 2 2 2 2 3 3 3 3 3 2 2 2 2 1 1 1 1 1 2 2
4 4 4 3 4 5 4 3 4 4 3 3 3 3 3 3 3 3 3 3 2 2 2 2 2 1 2 2 3 3 3 3 3 3 2 2 2 2 2 2 2 3 3
4 5 4 4 3 4 4 4 4 4 4 3 3 3 3 3 3 3 3 2 2 2 2 2 2 2 2 2 2 2 3 3 3 3 4 3 2 2 2 2 2 3 3
4 4 4 4 4 4 4 4 4 4 4 4 3 3 3 3 3 3 2 2 2 2 2 2 2 2 2 2 2 2 2 2 2 2 3 3 2 2 2 2 2 3 3
4 4 4 4 4 4 4 4 4 4 4 4 3 3 3 3 3 3 3 3 2 2 2 2 2 3 3 2 3 3 2 2 2 2 2 2 2 2 2 2 3 3 3
Wind_Direction
187 185 173 179 175 166 172 185 182 170 156 154 152 146 140 129 118 115 113 109 101 73 71 91 62 65 73 79 100 104 108 129 164 286 299 317 348 358 1 10 12 13 6
184 175 179 173 160 160 177 188 174 170 168 166 156 150 152 145 138 138 139 129 126 114 99 99 62 84 74 74 96 106 118 139 156 212 322 334 336 344 352 3 11 12 11
172 170 172 167 177 179 184 181 169 167 163 157 155 159 166 165 155 154 155 154 157 165 158 148 157 117 105 103 107 108 105 103 122 149 316 328 320 344 354 355 5 6 13
170 171 178 186 190 192 181 169 168 167 165 167 166 165 166 166 162 158 155 154 150 135 129 151 159 157 180 161 138 137 120 101 98 103 38 346 331 332 1 350 344 351 359
172 181 193 192 178 173 171 169 160 159 166 157 145 143 149 157 169 163 159 148 141 121 81 87 149 148 163 158 148 153 136 120 110 98 54 16 350 347 331 314 323 323 341
185 196 189 174 170 174 177 167 157 155 148 140 147 151 154 174 168 166 156 147 149 146 136 25 49 78 97 109 113 122 135 140 148 137 141 233 289 277 291 323 339 355 329
190 193 182 173 173 180 173 160 165 165 151 148 161 157 172 194 171 163 160 145 142 147 147 106 71 73 88 92 87 86 88 105 139 150 150 219 251 259 260 330 318 280 273
190 193 185 176 176 167 157 168 172 158 156 164 167 168 173 195 173 162 154 139 133 141 148 154 140 80 101 117 103 84 71 58 88 117 143 183 38 33 195 250 240 288 304
196 199 192 181 177 169 171 180 174 158 162 167 161 162 168 200 173 160 145 133 132 130 118 137 152 153 133 124 115 107 69 25 51 75 78 63 49 46 56 56 33 28 331
210 205 192 181 179 182 184 176 161 159 166 154 143 149 163 191 181 173 155 143 143 135 84 69 136 153 141 135 135 136 129 30 56 55 45 38 37 36 47 55 67 40 324
209 193 181 181 184 182 171 160 152 150 140 139 141 135 148 174 169 161 157 149 156 147 136 118 112 128 127 126 134 144 160 137 99 82 54 33 27 25 20 19 28 87 120
179 178 180 178 178 172 161 157 151 149 145 147 138 124 97 138 145 152 157 160 154 145 156 167 144 121 113 110 113 111 115 103 93 79 59 34 18 7 359 3 9 19 16
171 178 180 171 166 159 160 159 151 155 160 166 160 166 172 145 138 149 154 159 158 146 141 134 125 115 99 82 75 88 96 97 99 90 66 17 356 343 0 9 17 26 20
175 177 169 164 162 159 160 162 165 173 177 178 178 180 174 156 166 162 156 147 141 139 116 106 102 92 85 69 55 58 76 111 121 129 127 357 11 19 21 12 8 3 9
172 171 164 163 162 157 156 164 174 184 181 181 188 182 175 187 190 164 157 156 157 146 124 95 84 79 76 63 55 54 72 85 100 83 103 54 31 20 2 2 10 16 8
158 168 168 164 159 157 154 136 123 151 159 166 163 161 171 170 155 153 154 152 148 142 125 117 129 139 156 174 169 114 66 126 256 174 163 214 275 312 339 1 13 6 337
168 170 164 160 159 163 165 163 157 114 116 150 158 160 163 162 158 156 155 149 145 140 132 148 164 181 198 207 204 198 223 242 214 189 208 231 249 281 332 341 346 342 331
165 167 163 165 164 166 171 173 168 162 165 179 168 163 166 164 161 159 152 135 129 146 163 177 195 203 206 212 216 221 229 226 198 203 219 241 236 262 319 325 323 321 319
166 169 167 161 159 160 161 158 157 160 162 162 139 152 162 156 147 151 148 153 169 183 196 204 208 205 209 214 218 217 213 211 209 203 216 234 234 238 286 302 303 317 322
174 165 160 156 150 153 157 157 160 164 169 170 181 187 159 137 144 158 173 185 190 200 204 208 211 207 207 210 212 209 207 210 211 211 219 227 224 218 249 276 286 300 306
166 162 153 147 155 164 166 171 174 174 179 188 202 184 163 167 178 182 186 193 201 208 211 211 209 208 210 209 206 208 212 221 219 218 222 220 210 222 243 254 273 286 301
158 155 159 164 163 165 168 174 174 178 185 191 198 173 165 167 178 185 197 206 206 205 194 188 202 207 210 208 207 208 213 221 225 219 213 212 214 225 233 253 280 295 299
154 151 152 160 165 164 165 169 174 179 187 192 183 168 168 184 192 197 204 202 188 177 178 171 177 197 214 220 219 209 211 221 229 219 206 210 223 234 240 249 266 291 300
161 161 162 165 165 166 172 179 183 184 187 191 187 184 184 188 194 201 201 190 170 164 171 178 188 203 208 217 221 223 229 236 229 217 205 205 214 232 242 253 265 279 289
163 165 169 173 175 179 183 185 189 191 191 193 194 194 191 188 189 193 186 173 169 171 176 185 202 208 207 213 219 224 216 207 207 200 193 200 208 219 234 245 258 276 285
169 170 176 178 180 184 187 190 194 194 196 197 195 193 190 189 189 187 182 180 180 180 188 203 211 209 206 215 218 214 204 195 198 193 176 182 196 219 232 246 261 269 281
Height
1553 1554 1555 1556 1558 1558 1559 1560 1561 1562 1562 1563 1563 1563 1563 1563 1563 1563 1563 1563 1563 1562 1562 1562 1561 1561 1560 1560 1559 1559 1559 1559 1558 1558 1557 1556 1555 1554 1553 1552 1551 1549 1548
1552 1553 1554 1555 1556 1557 1558 1559 1560 1561 1561 1562 1562 1562 1563 1563 1563 1563 1563 1563 1562 1562 1562 1561 1561 1560 1560 1560 1559 1559 1558 1558 1558 1557 1556 1556 1555 1554 1553 1552 1550 1549 1547
1550 1551 1553 1554 1555 1556 1556 1557 1558 1559 1560 1561 1561 1562 1562 1562 1563 1563 1562 1562 1562 1561 1561 1561 1560 1560 1559 1559 1559 1558 1558 1557 1557 1556 1555 1555 1554 1553 1552 1551 1549 1548 1546
1548 1550 1551 1552 1553 1554 1555 1556 1557 1558 1559 1560 1560 1561 1561 1562 1562 1562 1562 1561 1561 1561 1560 1560 1560 1559 1559 1558 1558 1557 1557 1556 1556 1555 1554 1553 1553 1552 1550 1549 1548 1547 1545
1546 1547 1549 1550 1552 1553 1553 1554 1556 1557 1558 1558 1559 1560 1560 1560 1561 1561 1561 1560 1560 1560 1559 1559 1558 1558 1558 1557 1557 1556 1556 1555 1555 1554 1553 1552 1551 1550 1549 1547 1546 1545 1544
1544 1545 1547 1548 1550 1551 1552 1553 1554 1555 1556 1557 1558 1558 1559 1559 1559 1559 1559 1559 1559 1559 1558 1558 1557 1557 1557 1556 1556 1555 1555 1554 1554 1553 1552 1551 1550 1549 1548 1546 1545 1543 1541
1541 1543 1545 1546 1548 1549 1550 1551 1552 1553 1554 1555 1556 1556 1557 1557 1557 1557 1557 1557 1557 1557 1557 1556 1556 1556 1555 1555 1554 1554 1553 1553 1553 1552 1551 1550 1549 1547 1546 1545 1543 1542 1540
1539 1541 1542 1544 1545 1547 1548 1549 1550 1551 1552 1553 1553 1554 1554 1555 1555 1555 1555 1555 1555 1555 1555 1555 1555 1554 1554 1553 1553 1552 1552 1551 1551 1550 1549 1548 1547 1546 1545 1543 1542 1540 1538
1536 1538 1539 1541 1543 1544 1545 1546 1547 1548 1549 1550 1551 1552 1552 1553 1553 1553 1553 1553 1553 1553 1553 1553 1553 1553 1552 1552 1551 1550 1550 1549 1549 1548 1548 1547 1546 1544 1543 1541 1539 1537 1536
1533 1535 1537 1538 1540 1541 1543 1544 1545 1546 1547 1548 1549 1549 1550 1550 1551 1551 1551 1551 1551 1551 1551 1551 1551 1551 1550 1550 1550 1549 1548 1548 1547 1547 1546 1545 1543 1542 1540 1539 1537 1535 1533
1530 1532 1534 1536 1537 1539 1540 1541 1543 1544 1545 1545 1546 1547 1548 1548 1548 1548 1549 1549 1549 1549 1549 1549 1549 1549 1549 1548 1548 1547 1547 1546 1545 1545 1544 1542 1541 1539 1538 1536 1535 1533 1531
1527 1529 1531 1532 1534 1536 1537 1539 1540 1541 1542 1543 1544 1544 1545 1546 1546 1546 1546 1546 1547 1547 1547 1547 1547 1547 1547 1546 1545 1545 1545 1544 1543 1542 1541 1540 1538 1537 1535 1534 1532 1531 1529
1524 1526 1527 1529 1531 1533 1534 1536 1537 1538 1539 1540 1541 1542 1542 1543 1543 1544 1544 1544 1545 1545 1545 1545 1545 1545 1545 1544 1544 1543 1542 1541 1540 1540 1538 1537 1536 1535 1533 1532 1530 1528 1527
1521 1523 1524 1526 1528 1530 1531 1533 1534 1535 1536 1537 1537 1538 1539 1540 1541 1541 1542 1542 1542 1542 1543 1543 1543 1543 1542 1542 1541 1541 1540 1539 1538 1537 1536 1535 1534 1533 1531 1529 1527 1526 1524
1518 1519 1521 1522 1524 1526 1528 1529 1530 1532 1533 1534 1534 1536 1536 1537 1538 1539 1539 1539 1539 1540 1540 1540 1540 1540 1539 1539 1539 1538 1538 1537 1536 1535 1534 1533 1531 1530 1528 1527 1525 1523 1521
1515 1516 1518 1519 1521 1523 1525 1526 1528 1529 1530 1531 1532 1533 1533 1535 1535 1536 1536 1537 1537 1537 1537 1537 1537 1537 1537 1536 1536 1535 1535 1534 1533 1532 1531 1530 1529 1527 1526 1524 1522 1521 1519
1512 1513 1515 1516 1518 1519 1521 1523 1524 1526 1527 1528 1529 1530 1530 1531 1532 1533 1533 1534 1534 1534 1534 1534 1534 1534 1534 1534 1533 1532 1532 1531 1531 1529 1528 1527 1526 1524 1523 1521 1519 1518 1516
1510 1510 1512 1513 1515 1517 1518 1520 1521 1522 1523 1524 1525 1526 1527 1528 1529 1530 1531 1531 1531 1531 1531 1531 1531 1531 1531 1531 1530 1530 1529 1528 1527 1526 1525 1524 1523 1521 1520 1518 1516 1515 1513
1506 1507 1509 1510 1512 1514 1516 1517 1519 1520 1520 1521 1522 1523 1524 1525 1526 1526 1527 1527 1527 1527 1527 1528 1528 1528 1528 1527 1527 1526 1525 1524 1523 1522 1521 1521 1519 1518 1517 1515 1514 1512 1511
1503 1504 1506 1507 1509 1511 1513 1514 1515 1516 1517 1518 1519 1519 1520 1521 1521 1522 1522 1523 1523 1524 1524 1524 1524 1524 1524 1524 1523 1522 1521 1521 1520 1519 1518 1517 1516 1515 1513 1512 1511 1509 1507
1500 1501 1503 1504 1506 1508 1510 1511 1512 1513 1514 1515 1516 1516 1517 1517 1518 1518 1519 1519 1520 1520 1520 1520 1520 1520 1520 1520 1519 1518 1518 1517 1516 1515 1514 1513 1512 1511 1510 1509 1507 1506 1504
1497 1498 1500 1502 1503 1505 1506 1507 1509 1509 1510 1511 1512 1513 1513 1514 1514 1514 1515 1515 1516 1516 1516 1516 1516 1516 1516 1515 1515 1514 1513 1513 1512 1511 1510 1510 1509 1508 1507 1505 1504 1502 1501
1495 1496 1497 1499 1500 1501 1503 1504 1505 1506 1507 1508 1508 1509 1509 1509 1510 1510 1511 1511 1512 1512 1512 1512 1512 1511 1511 1511 1510 1510 1509 1508 1508 1507 1507 1506 1505 1504 1503 1502 1500 1499 1497
1492 1493 1494 1495 1497 1498 1499 1500 1501 1502 1503 1504 1504 1505 1505 1505 1506 1506 1507 1508 1508 1508 1508 1508 1507 1507 1507 1506 1506 1506 1505 1505 1504 1504 1503 1502 1502 1501 1500 1498 1497 1496 1494
1489 1490 1491 1492 1493 1495 1496 1496 1497 1498 1499 1500 1500 1501 1501 1501 1502 1502 1503 1503 1504 1504 1504 1504 1503 1503 1503 1503 1502 1502 1502 1501 1501 1500 1500 1499 1498 1497 1496 1495 1493 1492 1491
1486 1487 1488 1489 1490 1491 1492 1493 1494 1494 1495 1496 1496 1497 1497 1497 1498 1498 1499 1499 1500 1500 1500 1500 1500 1500 1499 1499 1499 1499 1498 1498 1497 1497 1496 1495 1494 1494 1493 1491 1490 1489 1487